TimeAKDT,TemperatureF,Dew PointF,Humidity,Sea Level PressureIn,VisibilityMPH,Wind Direction,Wind SpeedMPH,Gust SpeedMPH,PrecipitationIn,Events,Conditions,WindDirDegrees,DateUTC
12:53 AM,46.0,41.0,83,30.19,10.0,SE,4.6,-,N/A,,Clear,130,2013-05-09 08:53:00
1:53 AM,46.0,44.1,93,30.21,10.0,SE,5.8,-,N/A,,Clear,130,2013-05-09 09:53:00
2:53 AM,45.0,42.1,90,30.21,10.0,SE,3.5,-,N/A,,Clear,140,2013-05-09 10:53:00
3:53 AM,43.0,41.0,93,30.21,10.0,Calm,Calm,-,N/A,,Clear,0,2013-05-09 11:53:00
4:53 AM,42.1,39.9,92,30.22,10.0,Calm,Calm,-,N/A,,Clear,0,2013-05-09 12:53:00
5:53 AM,41.0,39.9,96,30.22,10.0,Calm,Calm,-,N/A,,Clear,0,2013-05-09 13:53:00
6:53 AM,46.0,43.0,89,30.24,10.0,ESE,3.5,-,N/A,,Clear,120,2013-05-09 14:53:00
7:53 AM,48.9,43.0,80,30.24,10.0,ESE,5.8,-,N/A,,Clear,120,2013-05-09 15:53:00
8:53 AM,50.0,44.6,82,30.23,10.0,ESE,8.1,-,N/A,,Clear,110,2013-05-09 16:53:00
9:53 AM,54.0,45.0,72,30.24,10.0,ESE,8.1,-,N/A,,Clear,110,2013-05-09 17:53:00
10:53 AM,53.1,45.0,74,30.25,10.0,ESE,12.7,-,N/A,,Clear,120,2013-05-09 18:53:00
11:53 AM,54.0,45.0,72,30.26,10.0,ESE,12.7,-,N/A,,Clear,120,2013-05-09 19:53:00
12:53 PM,55.0,46.0,72,30.26,10.0,ESE,11.5,-,N/A,,Clear,120,2013-05-09 20:53:00
1:53 PM,57.0,46.0,67,30.25,10.0,ESE,15.0,-,N/A,,Clear,120,2013-05-09 21:53:00
2:53 PM,57.9,46.0,65,30.24,10.0,ESE,13.8,-,N/A,,Clear,120,2013-05-09 22:53:00
3:53 PM,57.0,46.0,67,30.24,10.0,ESE,12.7,-,N/A,,Clear,120,2013-05-09 23:53:00
4:53 PM,55.9,46.0,69,30.23,10.0,ESE,11.5,-,N/A,,Clear,120,2013-05-10 00:53:00
5:53 PM,55.0,46.0,72,30.22,10.0,SE,10.4,-,N/A,,Clear,130,2013-05-10 01:53:00
6:53 PM,52.0,46.0,80,30.22,10.0,SE,9.2,-,N/A,,Clear,140,2013-05-10 02:53:00
7:53 PM,46.0,45.0,96,30.22,4.0,SE,9.2,-,N/A,,Scattered Clouds,140,2013-05-10 03:53:00
8:01 PM,46.4,44.6,93,30.22,1.0,SSE,9.2,-,N/A,,Mostly Cloudy,150,2013-05-10 04:01:00
8:16 PM,46.4,44.6,93,30.22,0.8,SE,9.2,-,N/A,,Overcast,140,2013-05-10 04:16:00
8:19 PM,46.4,44.6,93,30.22,0.8,SE,11.5,-,N/A,,Overcast,140,2013-05-10 04:19:00
8:37 PM,44.6,44.6,100,30.23,0.8,SE,10.4,-,N/A,,Overcast,140,2013-05-10 04:37:00
8:50 PM,46.4,46.4,100,30.23,0.5,SE,10.4,-,N/A,Fog,Fog,130,2013-05-10 04:50:00
8:53 PM,46.0,46.0,100,30.23,0.5,SE,11.5,-,N/A,Fog,Fog,130,2013-05-10 04:53:00
9:21 PM,46.4,46.4,100,30.24,1.5,SE,8.1,-,N/A,,Overcast,140,2013-05-10 05:21:00
9:46 PM,46.4,46.4,100,30.24,0.5,SE,8.1,-,N/A,Fog,Fog,140,2013-05-10 05:46:00
9:53 PM,46.0,46.0,100,30.24,0.8,SSE,6.9,-,N/A,,Mist,150,2013-05-10 05:53:00
10:01 PM,46.4,46.4,100,30.24,1.0,SE,6.9,-,N/A,,Mist,140,2013-05-10 06:01:00
10:53 PM,45.0,45.0,100,30.24,1.0,SSE,5.8,-,N/A,,Mist,160,2013-05-10 06:53:00
11:53 PM,45.0,45.0,100,30.25,1.0,SSE,4.6,-,N/A,,Mist,150,2013-05-10 07:53:00